Cortez, CO

9:07 AM MST on December 15, 2017 (GMT -0700)
Cortez Municipal

Weather History for KCEZ - July, 2013

Change the Weather History Date:

Thursday, July 4, 2013

  Actual Average Record
Temperature  
Mean Temperature 76 °F 70 °F  
Max Temperature 93 °F 90 °F 100 °F (2007)
Min Temperature 58 °F 50 °F 36 °F (1997)
Degree Days  
Heating Degree Days 0 0  
Month to date heating degree days 0 0  
Since 1 June heating degree days 12 75  
Since 1 July heating degree days 0 0  
Cooling Degree Days 11 5  
Month to date cooling degree days 44 19  
Year to date cooling degree days 171 82  
Since 1 June cooling degree days 171 77  
Growing Degree Days 24 (Base 50)    
Moisture  
Dew Point 42 °F    
Average Humidity 37    
Maximum Humidity 57    
Minimum Humidity 16    
Precipitation  
Precipitation T in 0.01 in 0.32 in (2006)
Month to date precipitation T 0.03  
Year to date precipitation 3.33 5.65  
Sea Level Pressure  
Sea Level Pressure 29.77 in    
Wind  
Wind Speed 4 mph (NE)    
Max Wind Speed 23 mph    
Max Gust Speed 36 mph    
Visibility 10 miles    
Events Rain , Thunderstorm    
T = Trace of Precipitation, MM = Missing Value Source: NWS Daily Summary

Daily Weather History Graph

Daily Weather History Graph

Search for Another Location

Airport or City:

Trip Planner

Search our weather history database for the weather conditions in past years. The results will help you decide how hot, cold, wet, or windy it might be!

Date:

Astronomy

Jul. 04, 2013 Rise Set
Actual Time 5:59 AM MDT 8:38 PM MDT
Civil Twilight 5:28 AM MDT 9:09 PM MDT
Nautical Twilight 4:50 AM MDT 9:47 PM MDT
Astronomical Twilight 4:07 AM MDT 10:30 PM MDT
Moon 3:16 AM MDT (7/4) 5:47 PM MDT (7/4)
Length of Visible Light 15h 40m
Length of Day
14h 39m
Waning Crescent, 11% of the Moon is Illuminated
Jul 4
Waning Crescent
Jul 8
New
Jul 15
First Quarter
Jul 22
Full
Jul 29
Last Quarter

Hourly Weather History & Observations

Time (MDT) Temp. Dew Point Humidity Pressure Visibility Wind Dir Wind Speed Gust Speed Precip Events Conditions
12:53 AM 70.0 °F 39.9 °F 33% 29.80 in 10.0 mi West 3.5 mph - N/A   Clear
1:53 AM 68.0 °F 39.9 °F 36% 29.80 in 10.0 mi Calm Calm - N/A   Clear
2:53 AM 66.9 °F 41.0 °F 39% 29.80 in 10.0 mi NE 8.1 mph - N/A   Clear
3:53 AM 63.0 °F 43.0 °F 48% 29.79 in 10.0 mi NE 3.5 mph - N/A   Clear
4:53 AM 64.0 °F 42.1 °F 45% 29.77 in 10.0 mi NE 5.8 mph - N/A   Clear
5:53 AM 61.0 °F 43.0 °F 52% 29.78 in 10.0 mi NE 6.9 mph - N/A   Clear
6:53 AM 59.0 °F 45.0 °F 60% 29.81 in 10.0 mi ESE 6.9 mph - N/A   Clear
7:53 AM 66.9 °F 46.0 °F 47% 29.81 in 10.0 mi NE 3.5 mph - N/A   Clear
8:53 AM 71.1 °F 44.1 °F 38% 29.82 in 10.0 mi Calm Calm - N/A   Clear
9:53 AM 78.1 °F 39.0 °F 25% 29.81 in 10.0 mi Calm Calm - N/A   Clear
10:53 AM 82.0 °F 42.1 °F 24% 29.79 in 10.0 mi SSE 4.6 mph - N/A   Clear
11:53 AM 87.1 °F 39.9 °F 19% 29.77 in 10.0 mi Calm Calm - N/A   Clear
12:53 PM 89.1 °F 37.9 °F 16% 29.76 in 10.0 mi WSW 8.1 mph - N/A   Clear
1:53 PM 89.1 °F 39.0 °F 17% 29.76 in 10.0 mi West 10.4 mph 19.6 mph N/A   Partly Cloudy
2:53 PM 89.1 °F 39.0 °F 17% 29.73 in 10.0 mi SW 9.2 mph - N/A   Partly Cloudy
3:53 PM 90.0 °F 37.0 °F 15% 29.72 in 10.0 mi Variable 3.5 mph - N/A   Clear
4:53 PM 90.0 °F 37.0 °F 15% 29.69 in 10.0 mi Calm Calm - N/A   Scattered Clouds
5:53 PM 84.9 °F 41.0 °F 21% 29.73 in 9.0 mi NNW 6.9 mph - 0.00 in Rain , Thunderstorm Light Rain
6:07 PM 86.0 °F 42.8 °F 22% 29.98 in 10.0 mi NNW 3.5 mph - 0.00 in   Mostly Cloudy
6:53 PM 86.0 °F 42.1 °F 21% 29.72 in 10.0 mi South 4.6 mph - 0.00 in   Partly Cloudy
7:53 PM 81.0 °F 48.0 °F 31% 29.71 in 10.0 mi Calm Calm - N/A   Clear
8:53 PM 71.1 °F 48.9 °F 45% 29.74 in 10.0 mi Calm Calm - N/A   Partly Cloudy
9:53 PM 68.0 °F 44.1 °F 42% 29.74 in 10.0 mi East 6.9 mph - N/A   Clear
10:53 PM 66.9 °F 41.0 °F 39% 29.75 in 10.0 mi NE 3.5 mph - N/A   Partly Cloudy
11:53 PM 63.0 °F 43.0 °F 48% 29.76 in 10.0 mi Calm Calm - N/A   Clear